Wetterdaten: Woche 12.02.18 - 18.02.18 (KW7)
Datum Zeit Temperatur Luftfeuchte Luftdruck Niederschlag Windrichtung Sonnenschein Solar Wind
12.02.2018 00:00 1,1 C 97 % 1009,5 hPa 0,0 l/m SW 0,00 h 0 W/m 11,3 km/h (2 Bft)
12.02.2018 01:00 0,9 C 97 % 1009,6 hPa 0,0 l/m SW 0,00 h 0 W/m 12,2 km/h (2 Bft)
12.02.2018 02:00 0,8 C 97 % 1009,6 hPa 0,0 l/m SW 0,00 h 0 W/m 11,8 km/h (2 Bft)
12.02.2018 03:00 0,8 C 97 % 1009,4 hPa 0,0 l/m W-SW 0,00 h 0 W/m 14,9 km/h (3 Bft)
12.02.2018 04:00 0,4 C 97 % 1009,5 hPa 0,2 l/m W-NW 0,00 h 0 W/m 8,2 km/h (2 Bft)
12.02.2018 05:00 0,3 C 96 % 1010,0 hPa 0,0 l/m W-NW 0,00 h 0 W/m 4,8 km/h (1 Bft)
12.02.2018 06:00 0,1 C 96 % 1010,5 hPa 0,0 l/m W-NW 0,00 h 0 W/m 2,1 km/h (1 Bft)
12.02.2018 07:00 -0,4 C 95 % 1011,7 hPa 0,0 l/m W-NW 0,25 h 17 W/m 5,1 km/h (1 Bft)
12.02.2018 08:00 -0,6 C 94 % 1012,5 hPa 0,0 l/m W-NW 0,17 h 34 W/m 4,0 km/h (1 Bft)
12.02.2018 09:00 -0,1 C 91 % 1013,5 hPa 0,0 l/m SW 0,17 h 124 W/m 10,2 km/h (2 Bft)
12.02.2018 10:00 0,3 C 82 % 1014,2 hPa 0,0 l/m W-NW 0,17 h 183 W/m 17,0 km/h (3 Bft)
12.02.2018 11:00 0,7 C 79 % 1014,7 hPa 0,0 l/m W-NW 0,33 h 231 W/m 12,2 km/h (2 Bft)
12.02.2018 12:00 0,9 C 77 % 1014,9 hPa 0,0 l/m W-NW 0,33 h 309 W/m 12,2 km/h (2 Bft)
12.02.2018 13:00 0,4 C 82 % 1015,2 hPa 0,0 l/m W-NW 0,50 h 217 W/m 17,2 km/h (3 Bft)
12.02.2018 14:00 0,1 C 84 % 1015,1 hPa 0,0 l/m W-NW 0,42 h 229 W/m 9,0 km/h (2 Bft)
12.02.2018 15:00 1,2 C 76 % 1015,3 hPa 0,0 l/m W-NW 1,00 h 274 W/m 10,8 km/h (2 Bft)
12.02.2018 16:00 0,8 C 76 % 1015,6 hPa 0,0 l/m W-NW 0,92 h 129 W/m 11,8 km/h (2 Bft)
12.02.2018 17:00 -0,4 C 87 % 1016,5 hPa 0,0 l/m N 0,33 h 20 W/m 1,5 km/h (1 Bft)
12.02.2018 18:00 -1,0 C 86 % 1017,0 hPa 0,0 l/m N 0,00 h 0 W/m 1,5 km/h (1 Bft)
12.02.2018 19:00 -1,5 C 86 % 1017,5 hPa 0,0 l/m N 0,00 h 0 W/m 0,1 km/h (0 Bft)
12.02.2018 20:00 -1,7 C 86 % 1017,6 hPa 0,0 l/m N 0,00 h 0 W/m 0,0 km/h (0 Bft)
12.02.2018 21:00 -1,5 C 89 % 1018,0 hPa 0,0 l/m NW 0,00 h 0 W/m 1,3 km/h (1 Bft)
12.02.2018 22:00 -1,7 C 90 % 1018,5 hPa 0,0 l/m W-NW 0,00 h 0 W/m 2,3 km/h (1 Bft)
12.02.2018 23:00 -1,9 C 91 % 1018,5 hPa 0,0 l/m N 0,00 h 0 W/m 0,0 km/h (0 Bft)
13.02.2018 00:00 -2,8 C 91 % 1018,3 hPa 0,0 l/m N 0,00 h 0 W/m 0,0 km/h (0 Bft)
13.02.2018 01:00 -3,7 C 91 % 1018,3 hPa 0,0 l/m N 0,00 h 0 W/m 0,0 km/h (0 Bft)
13.02.2018 02:00 -4,4 C 92 % 1018,1 hPa 0,0 l/m N 0,00 h 0 W/m 0,0 km/h (0 Bft)
13.02.2018 03:00 -5,1 C 92 % 1017,9 hPa 0,0 l/m N 0,00 h 0 W/m 0,0 km/h (0 Bft)
13.02.2018 04:00 -5,4 C 92 % 1017,8 hPa 0,0 l/m N 0,00 h 0 W/m 0,3 km/h (0 Bft)
13.02.2018 05:00 -5,1 C 94 % 1017,6 hPa 0,0 l/m W 0,00 h 0 W/m 1,2 km/h (1 Bft)
13.02.2018 06:00 -5,2 C 94 % 1017,4 hPa 0,0 l/m N 0,00 h 0 W/m 0,5 km/h (0 Bft)
13.02.2018 07:00 -5,7 C 95 % 1017,5 hPa 0,0 l/m N 0,00 h 11 W/m 0,4 km/h (0 Bft)
13.02.2018 08:00 -5,7 C 95 % 1017,4 hPa 0,0 l/m N 0,00 h 45 W/m 1,2 km/h (1 Bft)
13.02.2018 09:00 -4,6 C 96 % 1016,9 hPa 0,0 l/m W 0,67 h 203 W/m 1,2 km/h (1 Bft)
13.02.2018 10:00 -2,9 C 96 % 1016,3 hPa 0,0 l/m W-SW 1,00 h 377 W/m 3,5 km/h (1 Bft)
13.02.2018 11:00 -1,1 C 89 % 1015,7 hPa 0,0 l/m W-SW 1,00 h 480 W/m 4,9 km/h (1 Bft)
13.02.2018 12:00 0,9 C 69 % 1014,6 hPa 0,0 l/m O-SO 1,00 h 523 W/m 10,9 km/h (2 Bft)
13.02.2018 13:00 1,4 C 61 % 1013,5 hPa 0,0 l/m SO 1,00 h 481 W/m 13,7 km/h (3 Bft)
13.02.2018 14:00 1,7 C 56 % 1012,6 hPa 0,0 l/m O-SO 1,00 h 400 W/m 16,4 km/h (3 Bft)
13.02.2018 15:00 1,4 C 60 % 1011,6 hPa 0,0 l/m O-SO 1,00 h 274 W/m 17,8 km/h (3 Bft)
13.02.2018 16:00 0,7 C 64 % 1011,3 hPa 0,0 l/m O-SO 0,67 h 102 W/m 16,4 km/h (3 Bft)
13.02.2018 17:00 -0,2 C 68 % 1011,2 hPa 0,0 l/m O-SO 0,00 h 15 W/m 5,6 km/h (1 Bft)
13.02.2018 18:00 -1,2 C 71 % 1011,2 hPa 0,0 l/m N 0,00 h 0 W/m 0,3 km/h (0 Bft)
13.02.2018 19:00 -2,2 C 74 % 1011,6 hPa 0,0 l/m N 0,00 h 0 W/m 0,3 km/h (0 Bft)
13.02.2018 20:00 -2,9 C 77 % 1011,5 hPa 0,0 l/m O 0,00 h 0 W/m 6,6 km/h (2 Bft)
13.02.2018 21:00 -3,2 C 78 % 1011,3 hPa 0,0 l/m O 0,00 h 0 W/m 2,1 km/h (1 Bft)
13.02.2018 22:00 -4,1 C 79 % 1011,1 hPa 0,0 l/m N 0,00 h 0 W/m 0,0 km/h (0 Bft)
13.02.2018 23:00 -5,0 C 82 % 1011,2 hPa 0,0 l/m N 0,00 h 0 W/m 0,0 km/h (0 Bft)
14.02.2018 00:00 -5,6 C 84 % 1011,5 hPa 0,0 l/m N 0,00 h 0 W/m 0,0 km/h (0 Bft)
14.02.2018 01:00 -6,3 C 86 % 1011,7 hPa 0,0 l/m N 0,00 h 0 W/m 0,0 km/h (0 Bft)
14.02.2018 02:00 -6,8 C 87 % 1012,0 hPa 0,0 l/m N 0,00 h 0 W/m 0,0 km/h (0 Bft)
14.02.2018 03:00 -7,3 C 88 % 1012,4 hPa 0,0 l/m N 0,00 h 0 W/m 0,0 km/h (0 Bft)
14.02.2018 04:00 -7,8 C 89 % 1012,9 hPa 0,0 l/m N 0,00 h 0 W/m 0,0 km/h (0 Bft)
14.02.2018 05:00 -8,3 C 89 % 1013,7 hPa 0,0 l/m N 0,00 h 0 W/m 0,0 km/h (0 Bft)
14.02.2018 06:00 -8,8 C 90 % 1014,7 hPa 0,0 l/m N 0,00 h 0 W/m 0,0 km/h (0 Bft)
14.02.2018 07:00 -9,2 C 90 % 1015,6 hPa 0,0 l/m N 0,00 h 12 W/m 0,0 km/h (0 Bft)
14.02.2018 08:00 -9,2 C 91 % 1016,7 hPa 0,0 l/m N 0,42 h 90 W/m 0,0 km/h (0 Bft)
14.02.2018 09:00 -7,0 C 92 % 1017,2 hPa 0,0 l/m N 1,00 h 272 W/m 0,5 km/h (0 Bft)
14.02.2018 10:00 -4,7 C 90 % 1017,7 hPa 0,0 l/m O 1,00 h 370 W/m 2,0 km/h (1 Bft)
14.02.2018 11:00 -2,7 C 85 % 1017,8 hPa 0,0 l/m O 1,00 h 456 W/m 4,7 km/h (1 Bft)
14.02.2018 12:00 -1,0 C 79 % 1017,9 hPa 0,0 l/m O 1,00 h 501 W/m 4,3 km/h (1 Bft)
14.02.2018 13:00 0,5 C 73 % 1017,9 hPa 0,0 l/m O 1,00 h 470 W/m 4,5 km/h (1 Bft)
14.02.2018 14:00 1,2 C 66 % 1017,8 hPa 0,0 l/m O 1,00 h 395 W/m 4,1 km/h (1 Bft)
14.02.2018 15:00 1,4 C 62 % 1017,9 hPa 0,0 l/m O 1,00 h 274 W/m 4,8 km/h (1 Bft)
14.02.2018 16:00 1,0 C 61 % 1018,2 hPa 0,0 l/m O 0,58 h 102 W/m 3,5 km/h (1 Bft)
14.02.2018 17:00 0,4 C 64 % 1018,5 hPa 0,0 l/m O 0,08 h 15 W/m 1,2 km/h (1 Bft)
14.02.2018 18:00 -1,0 C 69 % 1019,0 hPa 0,0 l/m N 0,00 h 0 W/m 0,0 km/h (0 Bft)
14.02.2018 19:00 -2,6 C 74 % 1019,1 hPa 0,0 l/m N 0,00 h 0 W/m 0,0 km/h (0 Bft)
14.02.2018 20:00 -3,7 C 78 % 1019,5 hPa 0,0 l/m N 0,00 h 0 W/m 0,0 km/h (0 Bft)
14.02.2018 21:00 -4,4 C 80 % 1019,5 hPa 0,0 l/m N 0,00 h 0 W/m 0,0 km/h (0 Bft)
14.02.2018 22:00 -5,0 C 81 % 1019,3 hPa 0,0 l/m N 0,00 h 0 W/m 0,0 km/h (0 Bft)
14.02.2018 23:00 -5,4 C 82 % 1019,1 hPa 0,0 l/m N 0,00 h 0 W/m 0,4 km/h (0 Bft)
15.02.2018 00:00 -5,9 C 83 % 1019,0 hPa 0,0 l/m N 0,00 h 0 W/m 0,0 km/h (0 Bft)
15.02.2018 01:00 -6,3 C 84 % 1018,6 hPa 0,0 l/m N 0,00 h 0 W/m 0,0 km/h (0 Bft)
15.02.2018 02:00 -6,4 C 86 % 1018,5 hPa 0,0 l/m O 0,00 h 0 W/m 0,5 km/h (0 Bft)
15.02.2018 03:00 -6,4 C 87 % 1018,5 hPa 0,0 l/m N 0,00 h 0 W/m 0,0 km/h (0 Bft)
15.02.2018 04:00 -5,9 C 89 % 1018,0 hPa 0,0 l/m N 0,00 h 0 W/m 0,0 km/h (0 Bft)
15.02.2018 05:00 -5,5 C 89 % 1017,8 hPa 0,0 l/m N 0,00 h 0 W/m 0,0 km/h (0 Bft)
15.02.2018 06:00 -5,1 C 89 % 1017,7 hPa 0,0 l/m N 0,00 h 0 W/m 0,0 km/h (0 Bft)
15.02.2018 07:00 -4,6 C 89 % 1017,8 hPa 0,0 l/m N 0,00 h 7 W/m 0,0 km/h (0 Bft)
15.02.2018 08:00 -4,2 C 89 % 1018,3 hPa 0,0 l/m N 0,00 h 28 W/m 0,0 km/h (0 Bft)
15.02.2018 09:00 -3,4 C 89 % 1018,8 hPa 0,0 l/m N 0,00 h 67 W/m 0,3 km/h (0 Bft)
15.02.2018 10:00 -2,5 C 90 % 1019,0 hPa 0,0 l/m S-SW 0,00 h 86 W/m 9,8 km/h (2 Bft)
15.02.2018 11:00 -1,7 C 92 % 1018,8 hPa 0,8 l/m S-SW 0,00 h 146 W/m 10,2 km/h (2 Bft)
15.02.2018 12:00 -1,0 C 93 % 1018,5 hPa 0,2 l/m S-SW 0,00 h 172 W/m 14,2 km/h (3 Bft)
15.02.2018 13:00 -0,7 C 94 % 1018,5 hPa 0,6 l/m S-SW 0,00 h 109 W/m 11,0 km/h (2 Bft)
15.02.2018 14:00 0,0 C 96 % 1018,6 hPa 1,2 l/m S 0,00 h 66 W/m 8,0 km/h (2 Bft)
15.02.2018 15:00 0,5 C 96 % 1018,7 hPa 1,6 l/m S 0,00 h 41 W/m 6,1 km/h (2 Bft)
15.02.2018 16:00 0,7 C 96 % 1019,0 hPa 1,6 l/m S 0,00 h 20 W/m 7,9 km/h (2 Bft)
15.02.2018 17:00 0,8 C 97 % 1019,5 hPa 1,2 l/m S-SO 0,00 h 7 W/m 7,5 km/h (2 Bft)
15.02.2018 18:00 1,0 C 97 % 1019,8 hPa 1,2 l/m S 0,00 h 0 W/m 6,4 km/h (2 Bft)
15.02.2018 19:00 1,2 C 97 % 1020,0 hPa 0,6 l/m S 0,00 h 0 W/m 4,3 km/h (1 Bft)
15.02.2018 20:00 1,6 C 98 % 1019,8 hPa 0,6 l/m SW 0,00 h 0 W/m 8,7 km/h (2 Bft)
15.02.2018 21:00 2,2 C 98 % 1019,8 hPa 0,8 l/m SW 0,00 h 0 W/m 3,7 km/h (1 Bft)
15.02.2018 22:00 2,4 C 98 % 1019,6 hPa 0,6 l/m SW 0,00 h 0 W/m 2,8 km/h (1 Bft)
15.02.2018 23:00 2,3 C 98 % 1019,4 hPa 0,8 l/m SW 0,00 h 0 W/m 4,7 km/h (1 Bft)
16.02.2018 00:00 3,3 C 99 % 1019,3 hPa 1,2 l/m SW 0,00 h 0 W/m 8,2 km/h (2 Bft)
16.02.2018 01:00 3,5 C 98 % 1019,7 hPa 2,4 l/m W-NW 0,00 h 0 W/m 3,5 km/h (1 Bft)
16.02.2018 02:00 2,8 C 98 % 1020,3 hPa 0,8 l/m NW 0,00 h 0 W/m 4,4 km/h (1 Bft)
16.02.2018 03:00 3,1 C 99 % 1020,8 hPa 0,6 l/m N-NW 0,00 h 0 W/m 2,3 km/h (1 Bft)
16.02.2018 04:00 3,3 C 98 % 1021,4 hPa 0,4 l/m N 0,00 h 0 W/m 0,0 km/h (0 Bft)
16.02.2018 05:00 2,8 C 98 % 1022,0 hPa 0,0 l/m N 0,00 h 0 W/m 0,0 km/h (0 Bft)
16.02.2018 06:00 2,3 C 98 % 1022,8 hPa 0,0 l/m N 0,00 h 0 W/m 0,0 km/h (0 Bft)
16.02.2018 07:00 2,1 C 99 % 1023,6 hPa 0,4 l/m N 0,00 h 7 W/m 0,0 km/h (0 Bft)
16.02.2018 08:00 2,0 C 99 % 1024,5 hPa 0,6 l/m N 0,00 h 25 W/m 0,0 km/h (0 Bft)
16.02.2018 09:00 2,5 C 99 % 1025,0 hPa 0,8 l/m N 0,00 h 74 W/m 0,0 km/h (0 Bft)
16.02.2018 10:00 3,3 C 99 % 1025,4 hPa 0,0 l/m N 0,00 h 111 W/m 0,0 km/h (0 Bft)
16.02.2018 11:00 3,9 C 99 % 1026,0 hPa 0,0 l/m N 0,00 h 171 W/m 0,0 km/h (0 Bft)
16.02.2018 12:00 4,6 C 97 % 1026,1 hPa 0,0 l/m N 0,08 h 222 W/m 0,0 km/h (0 Bft)
16.02.2018 13:00 5,1 C 94 % 1025,8 hPa 0,0 l/m N-NW 0,00 h 172 W/m 2,0 km/h (1 Bft)
16.02.2018 14:00 5,5 C 92 % 1025,6 hPa 0,0 l/m N-NW 0,58 h 313 W/m 1,7 km/h (1 Bft)
16.02.2018 15:00 6,1 C 88 % 1025,2 hPa 0,0 l/m N-NW 0,08 h 126 W/m 2,3 km/h (1 Bft)
16.02.2018 16:00 5,0 C 90 % 1025,3 hPa 0,0 l/m N 0,17 h 71 W/m 0,0 km/h (0 Bft)
16.02.2018 17:00 4,3 C 92 % 1025,2 hPa 0,0 l/m N 0,08 h 20 W/m 0,0 km/h (0 Bft)
16.02.2018 18:00 3,6 C 92 % 1025,3 hPa 0,0 l/m N 0,00 h 0 W/m 0,0 km/h (0 Bft)
16.02.2018 19:00 2,3 C 92 % 1025,2 hPa 0,0 l/m N 0,00 h 0 W/m 0,0 km/h (0 Bft)
16.02.2018 20:00 1,1 C 92 % 1024,7 hPa 0,0 l/m N 0,00 h 0 W/m 0,0 km/h (0 Bft)
16.02.2018 21:00 0,4 C 93 % 1024,2 hPa 0,0 l/m N 0,00 h 0 W/m 0,3 km/h (0 Bft)
16.02.2018 22:00 -0,1 C 94 % 1023,9 hPa 0,0 l/m N 0,00 h 0 W/m 0,5 km/h (0 Bft)
16.02.2018 23:00 0,1 C 95 % 1023,8 hPa 0,0 l/m N-NW 0,00 h 0 W/m 2,5 km/h (1 Bft)
17.02.2018 00:00 0,4 C 96 % 1023,6 hPa 0,0 l/m N-NW 0,00 h 0 W/m 4,3 km/h (1 Bft)
17.02.2018 01:00 0,6 C 97 % 1023,0 hPa 0,0 l/m N-NW 0,00 h 0 W/m 5,1 km/h (1 Bft)
17.02.2018 02:00 0,7 C 97 % 1022,3 hPa 0,0 l/m N-NW 0,00 h 0 W/m 4,9 km/h (1 Bft)
17.02.2018 03:00 0,9 C 97 % 1020,9 hPa 0,0 l/m N-NO 0,00 h 0 W/m 6,7 km/h (2 Bft)
17.02.2018 04:00 0,9 C 98 % 1020,2 hPa 0,0 l/m N-NO 0,00 h 0 W/m 6,8 km/h (2 Bft)
17.02.2018 05:00 0,8 C 98 % 1019,3 hPa 0,0 l/m NO 0,00 h 0 W/m 12,1 km/h (2 Bft)
17.02.2018 06:00 0,8 C 98 % 1018,3 hPa 0,0 l/m O-NO 0,00 h 0 W/m 13,6 km/h (3 Bft)
17.02.2018 07:00 0,7 C 98 % 1017,7 hPa 0,0 l/m O-NO 0,00 h 5 W/m 12,5 km/h (3 Bft)
17.02.2018 08:00 0,4 C 98 % 1017,1 hPa 0,0 l/m NO 0,00 h 11 W/m 9,7 km/h (2 Bft)
17.02.2018 09:00 0,3 C 98 % 1016,5 hPa 0,0 l/m N-NO 0,00 h 23 W/m 8,3 km/h (2 Bft)
17.02.2018 10:00 0,2 C 98 % 1016,0 hPa 0,0 l/m NO 0,00 h 38 W/m 7,0 km/h (2 Bft)
17.02.2018 11:00 0,3 C 98 % 1015,5 hPa 0,0 l/m NO 0,00 h 67 W/m 1,9 km/h (1 Bft)
17.02.2018 12:00 0,6 C 98 % 1015,6 hPa 2,2 l/m N 0,00 h 71 W/m 0,0 km/h (0 Bft)
17.02.2018 13:00 0,6 C 98 % 1015,0 hPa 3,4 l/m NO 0,00 h 85 W/m 1,2 km/h (1 Bft)
17.02.2018 14:00 0,4 C 98 % 1014,9 hPa 2,6 l/m NO 0,00 h 78 W/m 4,9 km/h (1 Bft)
17.02.2018 15:00 0,3 C 98 % 1015,3 hPa 2,4 l/m N-NO 0,00 h 65 W/m 6,8 km/h (2 Bft)
17.02.2018 16:00 0,1 C 98 % 1016,2 hPa 2,0 l/m N-NO 0,00 h 43 W/m 8,6 km/h (2 Bft)
17.02.2018 17:00 -0,2 C 98 % 1017,4 hPa 2,4 l/m N-NO 0,00 h 13 W/m 3,7 km/h (1 Bft)
17.02.2018 18:00 -0,3 C 98 % 1018,6 hPa 1,6 l/m N 0,00 h 0 W/m 0,3 km/h (0 Bft)
17.02.2018 19:00 -0,3 C 98 % 1019,3 hPa 1,8 l/m N 0,00 h 0 W/m 1,3 km/h (1 Bft)
17.02.2018 20:00 -0,3 C 98 % 1019,9 hPa 1,2 l/m N 0,00 h 0 W/m 2,9 km/h (1 Bft)
17.02.2018 21:00 -0,5 C 98 % 1020,4 hPa 1,2 l/m N 0,00 h 0 W/m 2,5 km/h (1 Bft)
17.02.2018 22:00 -0,6 C 98 % 1021,2 hPa 0,6 l/m N 0,00 h 0 W/m 0,0 km/h (0 Bft)
17.02.2018 23:00 -0,6 C 98 % 1022,0 hPa 0,4 l/m N 0,00 h 0 W/m 0,0 km/h (0 Bft)
18.02.2018 00:00 -0,6 C 98 % 1022,9 hPa 0,2 l/m N 0,00 h 0 W/m 0,0 km/h (0 Bft)
18.02.2018 01:00 -0,7 C 98 % 1023,4 hPa 0,0 l/m N 0,00 h 0 W/m 0,0 km/h (0 Bft)
18.02.2018 02:00 -0,8 C 98 % 1023,9 hPa 0,0 l/m N 0,00 h 0 W/m 0,0 km/h (0 Bft)
18.02.2018 03:00 -0,9 C 98 % 1024,1 hPa 0,0 l/m N 0,00 h 0 W/m 0,0 km/h (0 Bft)
18.02.2018 04:00 -1,1 C 98 % 1024,2 hPa 0,0 l/m N 0,00 h 0 W/m 0,0 km/h (0 Bft)
18.02.2018 05:00 -1,0 C 98 % 1024,3 hPa 0,0 l/m N 0,00 h 0 W/m 0,0 km/h (0 Bft)
18.02.2018 06:00 -1,2 C 98 % 1024,6 hPa 0,0 l/m N 0,00 h 0 W/m 0,0 km/h (0 Bft)
18.02.2018 07:00 -1,3 C 98 % 1024,9 hPa 0,0 l/m N 0,00 h 6 W/m 0,0 km/h (0 Bft)
18.02.2018 08:00 -1,3 C 98 % 1025,2 hPa 0,0 l/m N-NO 0,00 h 22 W/m 0,9 km/h (0 Bft)
18.02.2018 09:00 -1,0 C 98 % 1025,4 hPa 0,0 l/m N 0,00 h 39 W/m 2,3 km/h (1 Bft)
18.02.2018 10:00 -0,3 C 98 % 1025,4 hPa 0,0 l/m N-NO 0,00 h 72 W/m 3,2 km/h (1 Bft)
18.02.2018 11:00 -0,3 C 97 % 1025,6 hPa 0,0 l/m NO 0,00 h 127 W/m 5,5 km/h (1 Bft)
18.02.2018 12:00 -0,0 C 96 % 1025,3 hPa 0,0 l/m NO 0,08 h 234 W/m 7,9 km/h (2 Bft)
18.02.2018 13:00 0,2 C 95 % 1024,9 hPa 0,0 l/m NO 0,00 h 195 W/m 8,0 km/h (2 Bft)
18.02.2018 14:00 0,0 C 94 % 1024,7 hPa 0,0 l/m O-NO 0,00 h 121 W/m 9,2 km/h (2 Bft)
18.02.2018 15:00 -0,3 C 93 % 1024,8 hPa 0,0 l/m O-NO 0,00 h 76 W/m 11,1 km/h (2 Bft)
18.02.2018 16:00 -0,6 C 93 % 1024,7 hPa 0,0 l/m O-NO 0,00 h 33 W/m 10,9 km/h (2 Bft)
18.02.2018 17:00 -0,7 C 93 % 1024,5 hPa 0,0 l/m O 0,00 h 11 W/m 6,0 km/h (2 Bft)
18.02.2018 18:00 -0,8 C 93 % 1024,3 hPa 0,0 l/m N 0,00 h 0 W/m 0,5 km/h (0 Bft)
18.02.2018 19:00 -0,9 C 94 % 1024,1 hPa 0,0 l/m O 0,00 h 0 W/m 2,1 km/h (1 Bft)
18.02.2018 20:00 -0,8 C 95 % 1023,6 hPa 0,0 l/m O-NO 0,00 h 0 W/m 2,8 km/h (1 Bft)
18.02.2018 21:00 -0,8 C 95 % 1023,1 hPa 0,0 l/m O-NO 0,00 h 0 W/m 7,6 km/h (2 Bft)
18.02.2018 22:00 -1,0 C 95 % 1022,6 hPa 0,0 l/m O-NO 0,00 h 0 W/m 8,7 km/h (2 Bft)
18.02.2018 23:00 -1,3 C 95 % 1022,0 hPa 0,0 l/m O-SO 0,00 h 0 W/m 5,1 km/h (1 Bft)
Min-Datum _ 14.02.18 13.02.18 12.02.18 - - - - 12.02.18
_ Min-Zeit 07:40 14:05 02:50 - - - - 06:25
Minimum _ -9,3 C 54 % 1009,3 hPa - - - - 0,0 km/h (0 Bft)
Max-Datum _ 16.02.18 16.02.18 16.02.18 17.02.18 - 12.02.18 12.02.18 12.02.18
_ Max-Zeit 15:00 00:15 12:20 13:00 - 07:45 12:55 13:15
Maximum _ 6,8 C 99 % 1026,3 hPa 3,4 l/m - 0,08 h 689 W/m 29,0 km/h
W-NW (5 Bft)
Durchschnitt _ -0,9 C 90 % 1018,7 hPa #41,2 l/m W-NW #21:05 h 145 W/m 4,0 km/h (1 Bft)